Weather Roundup
Issued by NWS

Home | Current Version | Previous Version | Graphics & Text | Print | Product List | Glossary Off
Versions: 1 2 3 4 5 6 7 8 9 10 11 12 13 14 15 16 17 18 19 20 21 22 23 24 25 26 27 28 29 30 31 32 33 34 35 36 37 38 39 40 41 42 43 44 45 46 47 48 49 50

000
NZUS93 KARX 291659
HRRWXR

CURRENT HOURLY OBSERVATIONS ACROSS
MUCH OF THE UPPER MISSISSIPPI VALLEY
NATIONAL WEATHER SERVICE LA CROSSE WI
1200 PM CDT TUE JUL 29 2014


...SOUTHEAST MINNESOTA...


CITY           SKY/WX    TMP DP  RH WIND       PRES   REMARKS
ROCHESTER      MOSUNNY   74  57  55 W9        30.14F
ROCHESTER/MAYO PTSUNNY   72  52  49 W13G18    30.13S
WINONA         SUNNY     77  55  47 N8        30.09F
AUSTIN         MOSUNNY   73  55  53 NW9G16    30.14F
ALBERT LEA     SUNNY     73  55  53 NW6G17    30.16S
DODGE CENTER   SUNNY     72  59  64 N13       30.15S
PRESTON        MOSUNNY   72  62  71 NW13      30.14S
OWATONNA       MOSUNNY   73  57  56 NW9       30.15S
FARIBAULT      SUNNY     77  54  44 W8        30.15S
$$

...ELSEWHERE IN MINNESOTA...


CITY           SKY/WX    TMP DP  RH WIND       PRES   REMARKS
MINNEAPOLIS    MOSUNNY   77  55  46 W8G18     30.12S
INTNL FALLS    SUNNY     74  58  57 NW6G16    30.07S
DULUTH         LGT RAIN  65  55  70 N17G28    30.09R
RED WING       MOSUNNY   77  57  50 W10G16    30.10S
REDWOOD FALLS  MOSUNNY   73  54  51 NW10G16   30.18S
MANKATO        SUNNY     73  52  46 W13       30.16S
WORTHINGTON    PTSUNNY   68  52  56 NW6       30.22F
FAIRMONT       PTSUNNY   73  54  49 N6        30.18F
$$

...SOUTHWEST WISCONSIN...


CITY           SKY/WX    TMP DP  RH WIND       PRES   REMARKS
LA CROSSE      SUNNY     76  58  53 NW7       30.08F
PRAIRIE DU CHI SUNNY     76  54  45 W7        30.09S
BOSCOBEL       SUNNY     80  56  43 NW9       30.08F
LONE ROCK      NOT AVBL
PLATTEVILLE    MOSUNNY   74  56  52 NW8       30.10S
FORT MC COY    SUNNY     74  53  47 W7        30.09S
CAMP DOUGLAS   MOSUNNY   75  59  57 W10       30.07R
VIROQUA        FAIR      73  57  58 NW7       30.11R
WIS DELLS      SUNNY     73  50  43 NW7       30.07S
$$

...ELSEWHERE IN WISCONSIN...


CITY           SKY/WX    TMP DP  RH WIND       PRES   REMARKS
MILWAUKEE      PTSUNNY   74  54  49 NW14      30.02F
MADISON        MOSUNNY   76  57  51 VRB7      30.06S
GREEN BAY      MOSUNNY   74  57  55 W8        30.00F
EAU CLAIRE     NOT AVBL
BLACK RVR FLS  FAIR      74  53  46 NW9       30.08S
MEDFORD        MOSUNNY   68  56  65 NW6       30.08S
WAUSAU         MOSUNNY   71  54  54 NW12      30.04F
WIS RAPIDS     MOSUNNY   75  52  44 NW13      30.07S
MARSHFIELD     MOSUNNY   75  53  46 NW12      30.07S
RICE LAKE      NOT AVBL
$$

...NORTHEAST IOWA...


CITY           SKY/WX    TMP DP  RH WIND       PRES   REMARKS
WATERLOO       MOSUNNY   74  57  55 NW12      30.13F
DUBUQUE        SUNNY     74  58  57 NW10      30.11S
DECORAH        SUNNY     73  59  60 NW9       30.12S
MASON CITY     MOSUNNY   72  56  57 N8        30.18S
CHARLES CITY   SUNNY     73  59  60 NW14      30.15S
OELWEIN        SUNNY     73  57  56 N9        30.14S
$$

...ELSEWHERE IN IOWA...


CITY           SKY/WX    TMP DP  RH WIND       PRES   REMARKS
DES MOINES     MOSUNNY   78  55  44 NW12      30.17S
IOWA CITY      SUNNY     76  57  51 NW7       30.14S
FORT DODGE     PTSUNNY   72  57  60 N5        30.20S
MARSHALLTOWN   MOSUNNY   72  58  61 NW6       30.16S
CEDAR RAPIDS   SUNNY     75  59  57 W10       30.13S
$$

...NORTHERN ILLINOIS...


CITY           SKY/WX    TMP DP  RH WIND       PRES   REMARKS
CHICAGO-OHARE  MOSUNNY   77  52  41 NW13G21   30.04S
DUPAGE         SUNNY     76  56  49 NW15      30.04F
CHICAGO-MIDWAY MOSUNNY   78  55  44 NW13      30.03F
MOLINE         MOSUNNY   76  56  49 NW9       30.11S
ROCKFORD       MOSUNNY   76  56  49 NW14      30.07F
STERLING       SUNNY     77  59  53 NW13      30.09S
PEORIA         SUNNY     77  55  46 NW8       30.11F
$$

NOTE: "FAIR" INDICATES FEW OR NO CLOUDS BELOW 12,000 FEET WITH NO
SIGNIFICANT WEATHER AND/OR OBSTRUCTIONS TO VISIBILITY. WIND
SPEEDS ARE IN MILES-PER-HOUR.



USA.gov is the U.S. government's official web portal to all federal, state and local government web resources and services.